sat.trackr.live / text

‹ back to catalog

ONEWEB-0069

NORAD 45430 · 2020-020G

PAYLOAD ACTIVE UNKNOWN

§ Identity

Operator
Country
UK
Launch date
2020-03-21
Launch site
TYMSC
Launch vehicle
Mass (kg)
RCS (m²)

Purposes: comms

External: N2YO · Heavens-Above · Gunter

§ Orbital elements

Epoch: 2026-09-15T17:11:19.038048Z

Period
109.80 min
Inclination
87.8975°
Eccentricity
0.0001993
Mean motion
13.11418220 rev/d
Perigee alt
1,216.2 km
Apogee alt
1,219.2 km
Semi-major
7,595.8 km
B*
-9.9634e-4
RAAN
3.0756°
Arg perigee
98.4712°
Mean anomaly
261.6642°
Rev number
31,453

§ Raw data

ONEWEB-00691 45430U 20020G   26258.71619257 -.00000340  00000+0 -99634-3 0  99932 45430  87.8975   3.0756 0001993  98.4712 261.6642 13.11418220314532

JSON: /api/v1/satellites/45430 · /tle

For live sub-satellite position, see the globe view (requires WebGL).

§ Visibility from observer

Set your observer location to see the next 7 days of passes ≥ 10°. The values pass through the URL so the page stays shareable.

No JS? Fill the form by hand. The geolocation button needs JavaScript.